Lapse_Rate
8.1 8.1 8.1 8.3 9.4 9.3 9.6 9.1 9.2 8.2 9.1 9.0 8.9 9.1 9.3 8.9 9.4 9.3 9.1 8.7 8.0 7.7 7.5 7.7 7.9 7.8 7.8 7.8 7.9 7.8 7.8 7.8 7.9 7.9 7.7 7.7 7.7 7.7 7.5 7.6 7.7 7.5 7.4 7.5
7.6 7.8 7.9 8.4 8.2 9.4 9.5 9.1 9.0 8.6 9.2 9.1 9.2 9.0 9.5 8.9 9.0 9.2 8.5 8.6 8.3 7.8 7.6 7.5 7.9 7.9 7.9 7.9 7.9 7.8 7.8 7.8 7.8 7.9 7.9 7.9 7.9 7.9 7.9 7.9 8.0 7.9 7.7 7.7
7.6 8.3 7.9 8.8 8.1 9.4 9.2 9.6 9.0 9.0 9.2 9.2 9.3 8.8 9.0 8.7 8.7 9.3 8.6 8.3 8.0 7.7 7.4 7.8 8.1 8.2 8.2 8.2 7.9 7.9 7.8 7.8 7.7 7.8 7.9 7.9 7.9 7.9 8.0 8.0 7.9 8.0 8.0 7.8
6.7 7.8 8.4 8.9 8.3 8.9 9.2 9.0 8.9 9.3 9.1 9.1 9.3 9.1 9.0 9.2 8.2 8.1 8.7 8.8 7.9 7.8 7.6 7.9 8.2 8.3 8.2 8.2 8.1 8.0 8.0 7.9 7.8 7.7 7.8 7.8 7.8 7.8 7.8 7.9 7.9 7.8 7.9 7.8
6.8 7.7 8.1 8.5 8.9 8.9 8.8 9.2 9.1 9.6 9.6 9.5 9.5 9.4 9.3 8.7 8.4 8.0 7.8 8.9 8.1 8.1 8.3 8.5 8.5 8.5 8.3 8.1 8.2 8.1 8.1 8.1 7.9 7.8 7.8 7.8 7.9 7.8 7.6 7.6 7.7 7.7 7.6 7.5
6.7 7.1 8.3 8.4 8.8 8.9 9.2 9.4 9.2 9.4 9.7 9.6 9.4 9.6 9.2 9.0 8.8 7.5 7.0 7.6 8.2 8.2 8.4 8.5 8.7 8.7 8.6 8.2 8.1 8.2 8.1 8.1 8.0 8.0 8.0 8.0 7.9 7.9 7.9 7.8 7.7 7.6 7.6 7.6
6.2 6.6 7.0 8.1 8.6 9.4 9.5 9.4 9.3 9.2 9.5 9.7 9.6 9.5 9.4 9.1 8.8 8.7 8.2 8.5 8.5 8.6 8.4 8.3 8.4 8.6 8.5 8.4 8.2 8.0 8.0 8.0 7.9 7.9 7.9 7.9 7.8 7.7 7.7 7.6 7.5 7.5 7.3 7.3
6.0 6.2 6.7 8.6 9.3 9.4 9.0 9.5 9.3 9.4 9.6 9.6 9.5 9.5 9.3 9.1 8.9 8.5 8.3 8.5 8.4 8.4 8.3 8.0 8.3 8.3 8.2 8.3 8.3 8.3 8.0 7.8 7.8 7.7 7.7 7.6 7.5 7.5 7.3 7.2 7.2 7.1 7.1 7.0
7.5 7.4 8.7 8.4 7.6 8.7 8.8 9.2 8.7 9.2 9.3 9.4 9.5 9.4 9.2 8.8 8.5 8.4 8.5 8.3 8.1 7.7 7.7 7.7 7.8 8.0 8.3 8.4 8.4 8.1 8.0 7.9 7.9 7.7 7.5 7.3 7.2 7.0 6.9 6.8 6.8 6.6 6.6 6.7
6.6 7.4 7.8 7.6 8.3 7.4 8.3 8.1 8.3 8.7 9.0 9.3 9.3 9.1 8.9 8.7 8.6 8.4 7.3 6.5 7.1 7.3 7.2 7.6 7.9 8.2 8.3 8.3 8.0 7.8 7.8 7.7 7.6 7.4 7.2 7.1 6.9 6.7 6.6 6.4 6.3 6.3 6.3 6.4
7.0 6.8 7.0 7.2 7.5 7.5 6.7 7.8 7.7 8.5 8.9 8.9 9.0 8.8 8.6 8.3 7.5 6.8 6.3 6.1 6.4 6.9 7.2 7.4 7.6 7.8 7.8 7.6 7.5 7.5 7.3 7.2 7.0 7.0 6.9 6.6 6.5 6.4 6.4 6.3 6.3 6.3 6.4 6.5
6.8 7.5 6.8 6.4 7.0 7.0 7.0 7.0 7.3 7.7 8.1 7.5 6.9 6.5 6.7 6.8 6.6 6.2 5.9 5.7 6.0 6.6 7.1 7.3 7.3 7.3 7.2 7.1 6.9 6.8 6.8 6.9 6.8 6.7 6.6 6.5 6.5 6.5 6.4 6.2 6.2 6.4 6.7 6.9
7.5 7.6 7.2 6.7 6.1 6.3 6.3 6.4 6.6 6.6 6.7 6.5 6.1 6.0 6.0 5.9 5.8 6.0 6.2 6.4 6.6 6.8 6.9 6.8 6.8 6.8 6.7 6.7 6.7 6.7 6.5 6.6 6.4 6.5 6.5 6.4 6.5 6.4 6.3 6.4 6.4 6.6 6.9 7.0
7.0 8.0 7.9 7.8 7.0 7.2 6.5 6.7 6.7 6.3 6.6 6.9 6.7 7.0 6.5 6.6 7.0 6.6 6.5 6.3 6.2 6.4 6.3 6.4 6.6 6.3 6.0 6.0 6.0 6.1 6.3 6.4 6.3 6.4 6.4 6.4 6.5 6.6 6.6 6.4 6.3 6.3 6.2 6.2
7.4 7.1 6.8 7.3 7.9 7.1 6.5 6.6 7.3 6.7 6.5 7.0 6.4 6.4 6.0 5.7 6.3 6.3 6.4 6.3 6.0 5.7 6.0 5.7 5.8 5.7 5.7 5.6 6.1 6.2 6.3 6.5 6.5 6.5 6.5 6.5 6.5 6.3 6.3 6.1 6.1 5.9 5.8 5.8
7.1 6.9 6.4 6.8 6.5 6.2 6.3 6.5 6.5 6.6 6.6 6.4 6.6 6.5 6.3 5.7 5.2 5.5 5.7 5.6 5.6 5.5 5.3 5.5 5.3 5.4 5.9 6.2 6.3 6.3 6.3 6.4 6.5 6.4 6.2 6.1 6.0 5.9 5.8 5.9 5.9 5.7 5.6 5.5
7.2 7.1 6.9 6.9 6.6 6.6 6.3 6.2 6.3 6.3 6.6 6.8 6.7 6.4 6.2 6.1 5.6 5.3 5.2 5.4 5.4 5.9 6.1 6.1 6.1 6.1 6.1 5.9 5.8 6.1 6.3 6.1 5.8 5.7 5.6 5.6 5.6 5.6 5.5 5.4 5.4 5.5 5.5 5.5
7.2 6.8 6.6 6.3 5.9 5.5 5.4 5.6 6.1 6.1 5.8 5.6 5.9 6.1 6.0 5.9 5.8 5.9 5.8 5.8 5.7 5.7 5.7 5.7 5.8 6.0 6.4 6.4 5.8 5.6 5.5 5.4 5.4 5.4 5.4 5.3 5.3 5.3 5.3 5.4 5.5 5.6 5.7 5.8
5.9 5.9 5.6 5.4 5.3 5.4 5.3 5.4 5.3 5.4 5.6 5.5 5.7 5.7 5.8 5.7 5.8 5.9 6.0 6.1 6.0 6.1 5.9 5.8 5.8 5.6 5.4 5.3 5.2 5.3 5.2 5.2 5.1 5.1 5.2 5.3 5.3 5.4 5.5 5.7 5.9 6.1 6.1 6.1
5.5 5.5 5.7 5.9 5.9 5.9 5.6 5.4 5.4 5.3 5.3 5.5 5.3 5.3 5.4 5.5 5.7 5.8 5.9 5.6 5.4 5.4 5.2 5.1 5.0 5.0 5.1 5.1 5.1 5.1 5.0 5.0 5.1 5.2 5.3 5.3 5.5 5.7 5.8 5.9 6.0 6.1 6.2 6.3
5.8 5.9 5.9 6.0 5.9 6.1 6.0 5.9 5.8 5.8 5.7 5.6 5.8 6.0 6.0 5.9 5.7 5.5 5.5 5.6 5.7 5.4 5.3 5.2 5.2 5.1 5.0 5.0 5.0 5.1 5.2 5.3 5.2 5.3 5.4 5.5 5.6 5.5 5.4 5.5 5.6 6.1 6.5 6.7
5.9 5.9 5.9 6.0 6.1 6.2 6.3 6.5 6.5 6.4 6.5 6.6 6.5 6.4 6.2 5.9 5.8 5.8 5.8 5.7 5.7 5.7 5.7 5.7 5.6 5.5 5.4 5.4 5.4 5.1 5.0 5.1 5.3 5.4 5.3 5.1 5.1 5.2 5.3 5.5 5.9 6.6 6.9 7.1
6.5 6.5 6.6 6.8 6.9 7.0 7.1 7.0 6.8 6.6 6.5 6.4 6.3 6.2 6.1 6.0 5.9 5.9 5.8 5.7 5.7 5.8 5.9 5.9 5.8 5.7 5.6 5.7 5.7 5.6 5.5 5.4 5.3 5.1 5.0 4.9 5.1 5.2 5.3 5.5 6.2 6.8 7.0 7.1
7.3 7.3 7.3 7.3 7.3 7.3 7.2 7.3 7.3 7.3 7.3 7.3 7.3 7.2 7.0 6.7 6.6 6.5 6.3 6.3 6.3 6.2 6.0 6.0 6.2 6.3 6.2 6.0 5.8 5.7 5.6 5.5 5.3 5.2 5.3 5.4 5.5 5.6 5.6 6.1 6.5 6.8 6.9 7.0
7.6 7.7 7.8 7.9 7.9 7.9 7.9 7.9 7.9 7.9 7.9 7.9 7.8 7.7 7.7 7.6 7.4 7.3 7.1 6.8 6.5 6.3 6.4 6.5 6.4 6.0 5.7 5.7 5.8 5.7 5.6 5.5 5.5 5.7 5.7 5.9 6.0 6.0 6.2 6.4 6.6 6.7 6.8 6.9
7.8 7.8 7.8 7.8 7.8 7.9 7.8 7.9 8.0 8.0 8.0 8.0 7.9 7.7 7.6 7.3 6.9 6.6 6.5 6.4 6.4 6.4 6.2 5.8 5.6 5.5 5.5 5.5 5.4 5.4 5.5 5.6 5.8 5.9 5.9 6.0 6.3 6.4 6.5 6.8 6.9 6.9 6.9 6.9
7.4 7.4 7.5 7.5 7.4 7.3 7.2 7.2 7.2 7.3 7.3 7.2 7.1 7.2 7.2 7.0 6.8 6.7 6.6 6.4 6.2 5.9 5.8 5.7 5.6 5.4 5.3 5.4 5.6 5.7 5.7 5.9 6.0 6.1 6.1 6.4 6.6 6.7 6.7 6.9 7.1 6.9 6.8 6.8
Wind_Speed
29 31 30 37 34 30 26 26 22 23 20 20 21 17 14 10 13 11 14 15 17 17 16 16 15 14 14 15 16 16 15 16 16 14 14 13 14 14 14 12 14 14 13 12
29 31 32 36 40 33 29 26 25 28 22 21 22 17 11 14 11 14 15 16 18 17 16 16 17 16 14 13 15 15 15 14 13 14 14 14 13 13 13 14 12 13 12 13
24 30 32 34 35 31 29 24 24 26 22 21 23 22 14 13 12 14 17 18 17 19 18 17 16 15 14 12 12 13 13 12 12 13 15 13 13 13 14 13 11 13 13 12
9 23 38 22 31 28 25 27 27 26 21 22 24 23 13 14 19 22 16 17 14 9 7 5 8 13 12 13 11 11 11 11 11 11 13 12 12 12 10 10 11 10 11 12
7 19 22 30 28 28 29 27 27 22 22 21 20 21 20 19 13 9 28 16 12 10 8 6 5 6 10 14 12 11 10 9 10 8 9 10 11 8 6 6 6 6 4 6
9 9 28 25 26 28 26 25 22 23 18 18 20 14 13 12 17 18 15 9 12 11 7 6 6 6 9 9 11 10 9 7 6 6 6 6 6 7 5 4 5 5 6 6
17 11 10 20 28 28 33 16 21 20 21 13 15 14 8 12 14 15 13 14 12 11 8 7 5 7 8 8 8 8 6 5 5 6 6 6 6 4 5 5 5 5 5 5
11 9 17 20 15 31 18 15 15 12 8 11 7 9 19 16 16 15 15 14 14 10 9 8 8 8 11 11 10 9 7 6 6 5 4 4 7 4 5 5 5 5 5 3
12 14 17 9 8 11 12 10 9 7 7 16 16 19 19 17 16 15 16 13 12 11 10 8 10 12 12 11 11 9 8 7 6 5 5 4 7 5 4 4 4 4 3 3
9 5 15 11 11 6 5 1 1 1 6 20 23 21 20 17 16 15 14 14 13 12 11 11 12 12 10 10 9 9 9 7 6 5 5 4 2 6 5 4 4 4 4 4
5 15 13 15 9 10 8 18 15 15 17 17 20 19 19 16 15 15 14 14 13 12 12 12 12 12 11 9 8 7 6 6 4 5 4 0 1 4 5 7 7 4 4 4
5 13 7 6 10 13 10 9 16 16 18 17 14 14 16 15 14 14 13 12 11 11 11 11 12 12 10 9 7 6 4 5 4 3 2 2 1 3 6 7 11 9 9 6
12 22 18 11 6 4 9 16 20 21 20 22 20 18 17 14 14 14 12 10 9 10 10 9 11 11 8 7 7 7 5 5 4 4 3 4 3 2 2 3 4 4 8 8
8 19 10 10 8 14 9 16 21 20 18 19 19 19 14 12 13 11 10 8 8 9 8 8 10 9 7 6 8 6 4 4 2 3 4 4 4 4 4 2 2 3 6 6
18 14 16 14 19 16 16 15 18 16 16 15 13 15 12 9 10 7 6 7 6 7 8 7 8 6 6 4 5 5 3 4 4 3 3 3 3 4 4 4 4 3 3 1
22 18 13 17 16 12 13 14 15 13 13 11 11 10 9 8 6 6 6 5 4 5 7 6 4 3 6 3 3 1 2 5 2 2 3 4 4 4 4 4 5 4 4 2
18 17 15 17 14 12 12 10 11 11 12 11 12 11 11 9 6 5 7 5 5 4 3 3 3 3 4 3 1 1 1 2 3 3 3 3 3 4 4 4 4 4 4 4
15 14 13 10 10 12 12 13 10 8 8 10 10 9 7 5 6 6 4 5 4 3 2 3 3 3 2 2 2 2 0 2 2 2 2 1 3 3 4 4 5 5 5 3
12 12 11 13 11 10 10 10 10 10 8 8 6 7 5 4 3 2 3 6 5 1 5 6 6 4 3 5 4 3 3 3 3 3 3 4 3 4 4 4 5 5 5 5
11 9 11 11 10 9 8 6 8 8 8 7 7 6 5 1 1 3 3 2 5 5 7 3 8 7 7 8 7 5 5 5 5 5 4 4 4 4 5 6 5 4 6 6
7 7 9 10 5 3 5 3 2 3 8 6 5 5 3 3 2 2 2 4 8 9 9 7 6 6 7 6 7 6 5 5 5 6 5 6 5 5 5 5 4 5 5 7
8 6 5 7 8 7 7 8 9 6 6 5 5 3 2 5 4 5 9 9 6 8 5 5 6 8 7 7 5 5 5 7 7 6 5 5 6 6 6 5 5 4 6 7
7 8 6 4 3 5 5 5 3 2 2 3 4 4 5 5 4 4 6 5 6 7 7 6 7 8 6 5 6 5 5 4 4 6 7 7 7 6 6 8 9 7 7 8
6 6 4 4 2 2 4 3 6 3 6 6 7 8 6 4 4 5 6 6 8 8 7 6 6 6 7 5 4 3 5 6 7 6 7 8 6 5 7 7 8 7 7 9
3 1 3 5 4 3 4 4 3 3 5 5 5 3 6 6 6 5 6 6 7 6 4 6 6 6 4 5 7 7 7 7 7 7 9 10 10 8 8 8 9 8 8 9
7 5 5 8 6 5 5 4 4 4 4 5 5 6 7 6 7 8 8 5 6 7 5 6 6 6 8 9 9 9 9 9 9 8 9 9 9 9 8 8 7 7 7 9
6 5 4 4 5 5 5 5 5 6 7 6 6 6 8 8 8 9 9 5 5 5 5 4 5 6 7 8 10 10 9 8 10 10 10 9 7 7 6 7 7 7 8 8
Wind_Direction
272 265 262 262 255 243 235 223 236 239 239 241 257 242 214 232 183 155 157 169 168 166 163 170 177 183 191 181 187 193 200 196 196 194 198 202 200 200 205 206 198 202 201 197
269 261 262 254 265 241 244 215 235 241 236 244 246 261 198 205 212 176 171 181 167 163 169 176 180 185 186 184 184 189 199 201 189 186 195 202 201 201 204 210 200 201 208 202
260 252 248 243 249 241 238 232 229 237 238 224 247 255 252 189 202 195 181 176 172 174 176 181 178 176 180 182 174 186 194 198 192 185 191 199 204 204 206 209 206 203 208 207
273 259 241 236 246 249 249 240 227 230 230 244 223 247 234 202 211 274 192 168 140 124 124 143 159 167 168 175 181 182 191 195 199 186 188 192 197 209 207 204 209 209 206 215
248 246 248 243 234 238 251 244 237 245 219 229 238 227 241 187 191 210 271 130 127 122 130 151 188 172 172 172 175 179 189 193 193 190 186 186 195 194 184 177 182 195 173 197
262 276 238 235 231 236 245 245 239 242 241 219 230 231 234 208 133 128 132 124 121 116 118 142 177 182 171 174 164 171 175 188 183 167 177 187 166 157 143 142 151 161 181 186
236 253 277 265 242 229 234 235 231 231 235 228 216 223 171 129 121 124 121 125 127 134 135 145 177 180 153 131 133 136 143 141 120 105 100 97 109 121 134 141 153 176 192 193
238 243 250 235 261 232 252 225 222 224 243 235 214 110 129 127 125 130 131 131 136 125 134 156 157 135 124 106 95 96 107 119 119 123 141 135 117 115 126 141 157 166 170 167
204 209 250 36 336 352 323 78 318 252 247 223 137 127 130 132 134 131 127 132 128 125 118 115 99 102 104 107 111 116 123 123 120 117 106 107 127 125 121 136 144 147 153 166
268 292 345 336 337 331 311 160 293 58 92 132 128 130 126 127 132 136 129 120 119 116 103 83 85 88 84 91 117 126 121 114 106 115 125 133 134 152 155 175 172 178 187 197
205 279 317 311 331 350 31 67 69 76 83 100 114 119 124 126 118 110 112 119 117 118 117 107 97 86 76 62 75 87 86 106 107 124 144 135 226 177 175 188 189 196 192 192
222 189 196 261 300 343 63 95 90 85 88 89 93 100 101 98 99 100 97 101 106 105 107 107 104 92 78 68 64 50 54 58 64 44 22 343 279 216 213 172 155 160 163 171
196 174 181 169 159 34 55 59 71 72 71 72 69 75 71 75 76 78 87 93 96 95 92 90 86 81 70 68 69 64 42 35 23 10 339 330 327 298 284 46 85 168 176 173
73 133 98 135 124 98 69 75 83 76 74 85 88 83 78 77 70 79 87 84 89 89 81 79 91 89 76 57 65 67 52 161 320 18 1 348 344 351 344 3 184 245 222 208
101 96 124 111 99 101 107 98 93 87 83 81 82 89 97 101 97 95 96 97 93 99 93 81 77 93 86 50 63 53 37 34 35 358 322 328 288 278 284 290 284 264 120 208
104 109 127 109 109 106 99 101 97 102 107 105 97 99 103 104 112 109 94 79 113 103 95 111 146 142 102 85 65 345 78 129 173 294 339 333 316 320 339 342 333 316 308 238
77 82 84 89 94 88 91 98 115 129 134 135 132 141 149 154 151 148 137 132 107 95 101 134 142 129 124 130 166 331 8 24 85 275 347 346 328 331 331 324 312 310 311 319
56 64 84 104 135 141 121 97 109 124 111 112 125 118 104 106 145 138 127 121 112 144 238 237 218 149 150 158 220 239 122 271 265 253 256 309 294 307 308 297 286 284 289 287
96 101 82 75 84 100 120 127 116 111 113 117 115 121 132 154 171 109 102 85 93 312 288 276 135 143 240 242 214 185 219 247 258 253 247 251 244 248 260 276 285 290 296 303
100 74 42 37 55 50 58 69 125 141 149 153 112 99 117 185 47 43 7 250 232 235 251 279 185 207 224 231 202 213 197 219 228 230 227 226 239 250 251 245 250 263 273 273
110 137 147 142 130 65 97 120 329 21 55 44 70 105 190 0 129 172 207 238 252 256 258 260 250 235 239 238 186 217 202 204 224 233 231 232 234 233 241 243 238 247 260 268
95 87 56 23 46 39 16 35 49 27 37 36 36 43 356 291 257 246 242 247 258 262 265 262 261 253 244 236 240 230 215 215 225 232 240 243 246 245 245 241 244 253 268 273
96 109 91 70 33 39 5 346 346 321 294 276 272 260 241 259 278 285 280 251 235 239 245 251 250 256 261 260 244 239 244 244 240 246 250 255 257 252 248 263 265 258 264 270
69 58 48 37 91 258 285 271 208 254 196 231 224 227 227 242 245 243 254 260 253 256 258 260 264 263 256 252 241 228 240 250 256 260 265 266 255 248 263 259 261 257 265 272
20 305 213 210 246 235 298 330 321 278 296 299 305 301 226 225 218 242 243 241 245 253 261 285 284 279 257 250 253 253 252 254 253 258 266 269 269 267 263 260 262 260 266 266
350 343 341 340 334 333 332 322 304 307 319 329 339 353 348 337 311 306 301 283 250 258 253 266 263 270 275 269 263 257 254 257 252 249 247 251 255 255 256 254 255 259 265 276
335 334 320 331 319 315 336 7 3 11 7 358 325 321 315 317 322 317 310 318 310 303 296 277 265 262 266 265 264 260 258 252 251 258 258 254 247 246 252 258 261 265 273 275